Torna al catalogo

NOAA 16 DEB

AttivoSSO
NORAD 41356·DEBRIS·🇺🇸 United States

Lanciato Sep 21, 2000 da Vandenberg Space Force Base

Loading…

Prossimi Passaggi (prossime 24 ore)

TLE

AggiornatoSource: Space-Track

Epoca: Sep 13, 2026, 09:08 UTC

1 41356U 00055HZ  26256.38107992  .00002217  00000-0  97807-3 0  9995
2 41356  98.7447 311.6457 0037257 238.5483 121.2051 14.23986207549927

Traccia NOAA 16 DEB in tempo reale con AllMySat

Download on the App Store